QPF
0.00 0.01 0.01 0.01 0.01 0.01 0.01 0.01 0.01 0.01 0.01 0.01 0.02 0.02 0.02 0.03 0.03 0.02 0.03 0.03 0.02 0.02 0.02 0.03 0.03 0.02 0.02 0.01 0.01 0.01 0.01 0.01 0.01 0.01 0.02 0.02 0.02 0.02 0.03 0.02 0.02 0.02 0.02 0.01
0.00 0.01 0.00 0.00 0.00 0.00 0.01 0.00 0.00 0.00 0.01 0.01 0.02 0.02 0.02 0.02 0.02 0.01 0.02 0.03 0.03 0.02 0.03 0.03 0.02 0.02 0.01 0.00 0.01 0.01 0.01 0.01 0.01 0.01 0.01 0.02 0.02 0.02 0.02 0.02 0.02 0.02 0.02 0.01
0.00 0.01 0.00 0.01 0.01 0.00 0.01 0.01 0.01 0.01 0.01 0.01 0.01 0.01 0.01 0.02 0.02 0.02 0.02 0.02 0.03 0.03 0.02 0.02 0.03 0.02 0.01 0.01 0.01 0.01 0.01 0.01 0.01 0.01 0.01 0.01 0.01 0.01 0.01 0.01 0.01 0.02 0.02 0.02
0.01 0.01 0.01 0.01 0.01 0.01 0.01 0.01 0.01 0.01 0.01 0.01 0.00 0.00 0.01 0.01 0.01 0.02 0.03 0.02 0.02 0.02 0.03 0.02 0.02 0.01 0.01 0.01 0.01 0.01 0.01 0.01 0.01 0.01 0.02 0.01 0.02 0.03 0.02 0.02 0.03 0.03 0.03 0.03
0.01 0.01 0.01 0.01 0.01 0.01 0.01 0.01 0.01 0.01 0.01 0.01 0.01 0.01 0.01 0.01 0.02 0.02 0.02 0.01 0.02 0.01 0.02 0.01 0.01 0.00 0.00 0.00 0.01 0.01 0.02 0.01 0.01 0.01 0.02 0.02 0.02 0.02 0.03 0.02 0.02 0.02 0.02 0.02
0.01 0.01 0.01 0.01 0.01 0.02 0.02 0.03 0.03 0.03 0.02 0.01 0.01 0.01 0.01 0.01 0.01 0.01 0.01 0.01 0.01 0.01 0.01 0.01 0.00 0.01 0.00 0.00 0.01 0.01 0.01 0.02 0.03 0.02 0.02 0.02 0.03 0.01 0.01 0.01 0.01 0.01 0.01 0.02
0.01 0.01 0.01 0.01 0.01 0.02 0.03 0.03 0.03 0.03 0.03 0.03 0.02 0.01 0.01 0.00 0.00 0.01 0.01 0.01 0.02 0.01 0.01 0.01 0.01 0.01 0.01 0.00 0.01 0.01 0.01 0.01 0.03 0.03 0.03 0.03 0.03 0.03 0.02 0.01 0.01 0.01 0.01 0.01
0.01 0.02 0.02 0.01 0.01 0.03 0.03 0.01 0.01 0.01 0.02 0.02 0.02 0.02 0.01 0.00 0.00 0.00 0.01 0.01 0.02 0.02 0.02 0.02 0.01 0.00 0.00 0.01 0.01 0.01 0.01 0.01 0.02 0.02 0.02 0.02 0.01 0.01 0.01 0.00 0.00 0.00 0.00 0.01
0.01 0.02 0.02 0.01 0.02 0.02 0.02 0.01 0.01 0.01 0.01 0.01 0.01 0.01 0.01 0.00 0.00 0.01 0.01 0.01 0.02 0.03 0.02 0.02 0.02 0.01 0.01 0.01 0.01 0.01 0.02 0.01 0.02 0.02 0.02 0.02 0.01 0.00 0.00 0.00 0.00 0.00 0.01 0.01
0.02 0.02 0.02 0.01 0.01 0.01 0.01 0.01 0.01 0.01 0.01 0.01 0.02 0.01 0.01 0.00 0.00 0.01 0.01 0.01 0.01 0.02 0.02 0.01 0.01 0.01 0.01 0.01 0.01 0.01 0.02 0.01 0.02 0.02 0.02 0.02 0.01 0.00 0.00 0.00 0.01 0.01 0.01 0.01
0.02 0.02 0.02 0.01 0.01 0.01 0.01 0.01 0.01 0.01 0.02 0.02 0.01 0.01 0.01 0.01 0.01 0.01 0.01 0.01 0.01 0.02 0.02 0.01 0.01 0.01 0.00 0.00 0.01 0.02 0.02 0.02 0.02 0.02 0.02 0.02 0.01 0.00 0.00 0.00 0.01 0.02 0.02 0.02
0.01 0.02 0.02 0.02 0.01 0.01 0.01 0.01 0.01 0.01 0.01 0.01 0.01 0.01 0.01 0.01 0.01 0.01 0.01 0.01 0.01 0.01 0.02 0.01 0.01 0.00 0.00 0.00 0.00 0.02 0.02 0.02 0.02 0.02 0.02 0.01 0.01 0.00 0.00 0.00 0.01 0.01 0.02 0.02
0.00 0.00 0.01 0.02 0.02 0.02 0.01 0.01 0.01 0.01 0.01 0.01 0.01 0.01 0.02 0.02 0.01 0.00 0.00 0.01 0.01 0.01 0.01 0.01 0.00 0.00 0.00 0.01 0.00 0.01 0.01 0.01 0.02 0.03 0.02 0.01 0.01 0.00 0.00 0.00 0.00 0.01 0.01 0.01
0.00 0.00 0.00 0.01 0.02 0.02 0.02 0.01 0.01 0.01 0.01 0.01 0.01 0.02 0.02 0.02 0.01 0.00 0.01 0.01 0.01 0.01 0.01 0.01 0.01 0.00 0.00 0.01 0.01 0.01 0.01 0.01 0.02 0.02 0.02 0.01 0.01 0.00 0.00 0.00 0.00 0.01 0.01 0.01
0.00 0.00 0.00 0.00 0.00 0.01 0.01 0.01 0.01 0.01 0.01 0.02 0.02 0.02 0.02 0.02 0.01 0.01 0.01 0.01 0.01 0.01 0.01 0.01 0.01 0.01 0.01 0.01 0.02 0.02 0.02 0.01 0.01 0.01 0.01 0.01 0.01 0.00 0.00 0.01 0.01 0.01 0.02 0.02
0.00 0.00 0.00 0.00 0.00 0.00 0.00 0.00 0.00 0.00 0.01 0.01 0.01 0.01 0.01 0.01 0.01 0.01 0.01 0.01 0.01 0.00 0.00 0.00 0.00 0.00 0.01 0.01 0.01 0.01 0.01 0.01 0.01 0.01 0.01 0.01 0.01 0.00 0.01 0.01 0.01 0.02 0.02 0.02
0.00 0.00 0.00 0.00 0.00 0.00 0.00 0.00 0.00 0.00 0.00 0.01 0.01 0.01 0.01 0.01 0.01 0.01 0.01 0.01 0.00 0.00 0.00 0.00 0.00 0.00 0.01 0.01 0.01 0.01 0.01 0.01 0.01 0.01 0.01 0.01 0.01 0.01 0.02 0.02 0.02 0.02 0.02 0.02
0.01 0.01 0.01 0.01 0.01 0.01 0.01 0.01 0.01 0.00 0.00 0.00 0.01 0.01 0.02 0.02 0.02 0.01 0.01 0.01 0.01 0.00 0.00 0.00 0.00 0.01 0.01 0.01 0.01 0.01 0.01 0.01 0.01 0.01 0.01 0.02 0.02 0.03 0.03 0.03 0.02 0.02 0.02 0.02
0.01 0.02 0.02 0.02 0.02 0.01 0.01 0.01 0.00 0.00 0.00 0.00 0.01 0.02 0.03 0.03 0.02 0.02 0.01 0.01 0.00 0.00 0.00 0.00 0.01 0.02 0.01 0.01 0.01 0.01 0.02 0.03 0.03 0.02 0.02 0.04 0.05 0.06 0.05 0.03 0.03 0.03 0.02 0.02
0.01 0.02 0.01 0.01 0.01 0.01 0.01 0.01 0.00 0.00 0.00 0.01 0.01 0.02 0.03 0.03 0.02 0.02 0.01 0.01 0.01 0.00 0.00 0.01 0.02 0.02 0.01 0.01 0.01 0.01 0.02 0.03 0.03 0.02 0.03 0.04 0.05 0.05 0.04 0.04 0.04 0.03 0.03 0.02
0.01 0.01 0.01 0.00 0.00 0.01 0.00 0.00 0.00 0.00 0.00 0.01 0.01 0.02 0.02 0.03 0.02 0.02 0.01 0.01 0.01 0.00 0.00 0.01 0.02 0.02 0.01 0.00 0.01 0.01 0.01 0.02 0.02 0.02 0.03 0.03 0.04 0.03 0.03 0.03 0.03 0.02 0.02 0.01
0.01 0.00 0.00 0.00 0.01 0.01 0.01 0.00 0.00 0.00 0.00 0.00 0.01 0.02 0.02 0.03 0.03 0.01 0.01 0.01 0.00 0.00 0.00 0.01 0.01 0.01 0.01 0.00 0.01 0.01 0.01 0.02 0.02 0.02 0.03 0.02 0.03 0.02 0.02 0.01 0.01 0.01 0.00 0.01
0.01 0.01 0.01 0.01 0.01 0.01 0.01 0.01 0.01 0.01 0.01 0.01 0.01 0.02 0.03 0.04 0.04 0.02 0.01 0.01 0.00 0.00 0.00 0.00 0.00 0.01 0.01 0.00 0.01 0.01 0.01 0.01 0.02 0.02 0.02 0.02 0.01 0.01 0.01 0.01 0.00 0.00 0.00 0.00
0.02 0.01 0.01 0.01 0.01 0.01 0.01 0.01 0.02 0.02 0.02 0.02 0.02 0.02 0.03 0.04 0.04 0.03 0.01 0.01 0.00 0.00 0.00 0.00 0.00 0.01 0.00 0.00 0.00 0.01 0.01 0.01 0.02 0.02 0.02 0.01 0.01 0.01 0.01 0.01 0.00 0.00 0.00 0.00
0.02 0.02 0.02 0.02 0.01 0.01 0.02 0.02 0.02 0.02 0.03 0.03 0.02 0.02 0.03 0.04 0.04 0.02 0.01 0.01 0.00 0.01 0.00 0.00 0.01 0.01 0.01 0.01 0.01 0.01 0.01 0.01 0.02 0.03 0.03 0.02 0.02 0.01 0.01 0.01 0.01 0.01 0.01 0.01
0.03 0.02 0.03 0.03 0.02 0.02 0.02 0.02 0.03 0.04 0.05 0.03 0.02 0.03 0.05 0.04 0.03 0.01 0.01 0.01 0.01 0.01 0.00 0.00 0.01 0.01 0.01 0.01 0.01 0.01 0.01 0.02 0.02 0.02 0.02 0.02 0.02 0.02 0.02 0.01 0.01 0.01 0.01 0.01
0.03 0.02 0.02 0.02 0.02 0.03 0.02 0.02 0.03 0.04 0.04 0.03 0.02 0.04 0.05 0.04 0.02 0.01 0.01 0.01 0.01 0.01 0.00 0.00 0.01 0.01 0.01 0.01 0.01 0.01 0.01 0.01 0.01 0.01 0.01 0.02 0.01 0.01 0.01 0.01 0.01 0.01 0.01 0.01
MSLP
1013.00 1013.31 1013.64 1014.02 1014.42 1014.83 1015.19 1015.46 1015.60 1015.59 1015.42 1015.13 1014.75 1014.33 1013.93 1013.59 1013.35 1013.19 1013.13 1013.13 1013.17 1013.21 1013.23 1013.24 1013.23 1013.21 1013.21 1013.24 1013.33 1013.48 1013.69 1013.95 1014.27 1014.61 1014.98 1015.34 1015.69 1016.02 1016.32 1016.58 1016.78 1016.93 1016.99 1016.99
1013.09 1013.33 1013.55 1013.79 1014.04 1014.30 1014.55 1014.77 1014.93 1015.02 1015.03 1014.96 1014.84 1014.69 1014.53 1014.39 1014.28 1014.21 1014.16 1014.13 1014.11 1014.08 1014.04 1014.00 1013.96 1013.93 1013.93 1013.99 1014.09 1014.24 1014.45 1014.70 1014.99 1015.29 1015.62 1015.95 1016.27 1016.58 1016.87 1017.12 1017.33 1017.47 1017.55 1017.53
1013.17 1013.34 1013.46 1013.57 1013.67 1013.81 1013.96 1014.13 1014.29 1014.45 1014.59 1014.71 1014.79 1014.84 1014.87 1014.88 1014.88 1014.85 1014.81 1014.75 1014.68 1014.60 1014.51 1014.44 1014.39 1014.37 1014.39 1014.47 1014.61 1014.78 1014.99 1015.24 1015.51 1015.79 1016.09 1016.39 1016.69 1016.99 1017.28 1017.53 1017.74 1017.90 1017.98 1017.98
1013.23 1013.33 1013.35 1013.34 1013.33 1013.35 1013.42 1013.54 1013.70 1013.91 1014.13 1014.37 1014.59 1014.79 1014.96 1015.07 1015.14 1015.16 1015.12 1015.05 1014.94 1014.83 1014.73 1014.65 1014.61 1014.62 1014.69 1014.81 1014.98 1015.18 1015.41 1015.66 1015.92 1016.19 1016.47 1016.75 1017.03 1017.32 1017.60 1017.85 1018.07 1018.24 1018.33 1018.33
1013.24 1013.26 1013.20 1013.09 1012.99 1012.92 1012.92 1012.99 1013.14 1013.36 1013.64 1013.95 1014.27 1014.57 1014.83 1015.02 1015.15 1015.20 1015.18 1015.11 1015.01 1014.91 1014.81 1014.76 1014.76 1014.82 1014.93 1015.11 1015.31 1015.55 1015.81 1016.06 1016.32 1016.58 1016.84 1017.11 1017.37 1017.65 1017.91 1018.16 1018.38 1018.54 1018.63 1018.65
1013.17 1013.10 1012.96 1012.78 1012.61 1012.47 1012.41 1012.45 1012.58 1012.81 1013.11 1013.47 1013.85 1014.22 1014.54 1014.80 1014.98 1015.07 1015.09 1015.06 1015.00 1014.93 1014.88 1014.87 1014.93 1015.04 1015.21 1015.43 1015.69 1015.96 1016.24 1016.51 1016.77 1017.03 1017.27 1017.52 1017.77 1018.03 1018.27 1018.51 1018.71 1018.86 1018.95 1018.95
1012.97 1012.82 1012.61 1012.37 1012.15 1011.97 1011.88 1011.89 1012.02 1012.25 1012.57 1012.96 1013.38 1013.79 1014.17 1014.48 1014.71 1014.87 1014.95 1014.98 1014.97 1014.97 1014.99 1015.04 1015.16 1015.33 1015.55 1015.82 1016.12 1016.42 1016.72 1017.01 1017.27 1017.53 1017.77 1018.01 1018.25 1018.48 1018.71 1018.91 1019.09 1019.21 1019.28 1019.27
1012.64 1012.43 1012.17 1011.89 1011.63 1011.44 1011.33 1011.34 1011.46 1011.70 1012.03 1012.44 1012.89 1013.34 1013.76 1014.13 1014.43 1014.65 1014.81 1014.91 1014.98 1015.05 1015.13 1015.26 1015.43 1015.65 1015.92 1016.22 1016.55 1016.87 1017.19 1017.50 1017.79 1018.05 1018.30 1018.53 1018.76 1018.98 1019.18 1019.36 1019.50 1019.60 1019.63 1019.61
1012.22 1011.94 1011.64 1011.34 1011.08 1010.89 1010.80 1010.81 1010.94 1011.19 1011.53 1011.95 1012.43 1012.91 1013.37 1013.79 1014.16 1014.45 1014.68 1014.86 1015.01 1015.15 1015.29 1015.47 1015.68 1015.93 1016.23 1016.55 1016.89 1017.24 1017.58 1017.91 1018.21 1018.50 1018.76 1019.01 1019.24 1019.45 1019.63 1019.79 1019.90 1019.97 1019.97 1019.92
1011.75 1011.43 1011.11 1010.81 1010.56 1010.39 1010.31 1010.35 1010.49 1010.75 1011.11 1011.55 1012.03 1012.54 1013.03 1013.50 1013.91 1014.27 1014.57 1014.81 1015.02 1015.21 1015.40 1015.60 1015.83 1016.10 1016.40 1016.73 1017.07 1017.43 1017.79 1018.14 1018.47 1018.79 1019.08 1019.35 1019.60 1019.81 1019.99 1020.13 1020.22 1020.26 1020.25 1020.19
1011.31 1010.97 1010.64 1010.35 1010.12 1009.98 1009.93 1009.99 1010.16 1010.43 1010.79 1011.24 1011.73 1012.25 1012.76 1013.25 1013.70 1014.10 1014.44 1014.73 1014.98 1015.20 1015.41 1015.62 1015.85 1016.11 1016.39 1016.70 1017.04 1017.40 1017.77 1018.15 1018.51 1018.87 1019.20 1019.51 1019.78 1020.01 1020.19 1020.33 1020.41 1020.45 1020.43 1020.35
1010.95 1010.59 1010.27 1010.01 1009.81 1009.71 1009.69 1009.77 1009.96 1010.23 1010.60 1011.03 1011.51 1012.02 1012.54 1013.03 1013.50 1013.92 1014.29 1014.60 1014.87 1015.10 1015.30 1015.51 1015.71 1015.94 1016.19 1016.48 1016.80 1017.15 1017.53 1017.93 1018.33 1018.73 1019.11 1019.45 1019.76 1020.01 1020.22 1020.37 1020.45 1020.49 1020.47 1020.41
1010.69 1010.35 1010.05 1009.81 1009.65 1009.57 1009.58 1009.69 1009.87 1010.14 1010.49 1010.90 1011.36 1011.85 1012.35 1012.83 1013.30 1013.72 1014.10 1014.42 1014.69 1014.91 1015.10 1015.28 1015.46 1015.65 1015.87 1016.13 1016.43 1016.77 1017.16 1017.57 1018.00 1018.43 1018.85 1019.23 1019.58 1019.87 1020.09 1020.26 1020.37 1020.41 1020.41 1020.37
1010.52 1010.19 1009.91 1009.71 1009.59 1009.54 1009.57 1009.69 1009.87 1010.13 1010.44 1010.82 1011.24 1011.69 1012.16 1012.63 1013.08 1013.49 1013.87 1014.19 1014.45 1014.67 1014.85 1015.01 1015.16 1015.32 1015.51 1015.74 1016.02 1016.35 1016.73 1017.16 1017.61 1018.07 1018.51 1018.93 1019.31 1019.63 1019.88 1020.07 1020.19 1020.27 1020.29 1020.28
1010.36 1010.06 1009.83 1009.66 1009.57 1009.55 1009.60 1009.71 1009.89 1010.12 1010.40 1010.74 1011.12 1011.53 1011.96 1012.40 1012.83 1013.23 1013.60 1013.93 1014.19 1014.41 1014.59 1014.74 1014.88 1015.03 1015.19 1015.41 1015.67 1015.99 1016.37 1016.79 1017.25 1017.72 1018.19 1018.63 1019.02 1019.36 1019.64 1019.85 1020.00 1020.10 1020.16 1020.19
1010.17 1009.90 1009.70 1009.57 1009.52 1009.53 1009.59 1009.70 1009.87 1010.07 1010.32 1010.61 1010.95 1011.32 1011.72 1012.13 1012.54 1012.94 1013.32 1013.65 1013.93 1014.17 1014.37 1014.53 1014.67 1014.81 1014.98 1015.18 1015.43 1015.74 1016.11 1016.53 1016.98 1017.46 1017.93 1018.37 1018.79 1019.14 1019.43 1019.67 1019.85 1019.97 1020.07 1020.14
1009.87 1009.64 1009.48 1009.40 1009.38 1009.41 1009.49 1009.61 1009.76 1009.95 1010.17 1010.43 1010.72 1011.06 1011.42 1011.82 1012.22 1012.62 1013.01 1013.37 1013.68 1013.95 1014.17 1014.36 1014.53 1014.69 1014.86 1015.06 1015.31 1015.61 1015.97 1016.37 1016.81 1017.28 1017.74 1018.19 1018.60 1018.97 1019.28 1019.53 1019.74 1019.90 1020.03 1020.14
1009.45 1009.26 1009.15 1009.10 1009.12 1009.18 1009.28 1009.40 1009.55 1009.72 1009.92 1010.15 1010.43 1010.73 1011.08 1011.46 1011.87 1012.28 1012.68 1013.07 1013.42 1013.73 1013.99 1014.22 1014.42 1014.61 1014.80 1015.01 1015.25 1015.55 1015.89 1016.27 1016.70 1017.14 1017.60 1018.04 1018.45 1018.83 1019.15 1019.44 1019.67 1019.87 1020.04 1020.19
1008.94 1008.79 1008.71 1008.70 1008.75 1008.83 1008.95 1009.09 1009.24 1009.41 1009.61 1009.82 1010.08 1010.37 1010.71 1011.08 1011.48 1011.91 1012.33 1012.74 1013.13 1013.48 1013.79 1014.06 1014.29 1014.51 1014.72 1014.94 1015.19 1015.47 1015.79 1016.16 1016.56 1016.99 1017.43 1017.87 1018.28 1018.67 1019.02 1019.33 1019.60 1019.84 1020.04 1020.23
1008.41 1008.29 1008.23 1008.25 1008.32 1008.44 1008.57 1008.73 1008.89 1009.06 1009.25 1009.46 1009.71 1009.99 1010.32 1010.68 1011.09 1011.51 1011.95 1012.39 1012.80 1013.18 1013.52 1013.83 1014.09 1014.33 1014.56 1014.79 1015.03 1015.30 1015.61 1015.96 1016.35 1016.75 1017.19 1017.62 1018.04 1018.45 1018.82 1019.17 1019.47 1019.75 1020.00 1020.22
1007.97 1007.85 1007.81 1007.83 1007.92 1008.05 1008.19 1008.36 1008.53 1008.71 1008.90 1009.11 1009.34 1009.62 1009.93 1010.29 1010.69 1011.11 1011.55 1011.99 1012.41 1012.81 1013.17 1013.50 1013.79 1014.04 1014.28 1014.51 1014.75 1015.02 1015.31 1015.65 1016.01 1016.41 1016.83 1017.27 1017.70 1018.12 1018.53 1018.91 1019.26 1019.57 1019.87 1020.12
1007.69 1007.55 1007.50 1007.52 1007.60 1007.73 1007.88 1008.05 1008.22 1008.40 1008.59 1008.79 1009.01 1009.27 1009.57 1009.91 1010.29 1010.69 1011.12 1011.55 1011.97 1012.37 1012.74 1013.08 1013.38 1013.65 1013.89 1014.13 1014.37 1014.63 1014.91 1015.23 1015.58 1015.97 1016.39 1016.83 1017.27 1017.72 1018.15 1018.56 1018.95 1019.31 1019.63 1019.92
1007.60 1007.43 1007.35 1007.35 1007.42 1007.53 1007.67 1007.82 1007.99 1008.16 1008.33 1008.52 1008.73 1008.97 1009.24 1009.55 1009.90 1010.27 1010.67 1011.08 1011.49 1011.88 1012.25 1012.59 1012.89 1013.17 1013.43 1013.67 1013.91 1014.17 1014.45 1014.77 1015.11 1015.50 1015.91 1016.35 1016.81 1017.27 1017.72 1018.15 1018.57 1018.95 1019.31 1019.63
1007.69 1007.49 1007.37 1007.34 1007.37 1007.45 1007.56 1007.70 1007.85 1007.99 1008.15 1008.31 1008.50 1008.70 1008.94 1009.21 1009.52 1009.85 1010.22 1010.60 1010.99 1011.37 1011.73 1012.07 1012.39 1012.68 1012.95 1013.21 1013.46 1013.73 1014.02 1014.33 1014.68 1015.06 1015.47 1015.91 1016.36 1016.82 1017.28 1017.73 1018.16 1018.57 1018.94 1019.27
1007.91 1007.67 1007.51 1007.44 1007.43 1007.48 1007.55 1007.66 1007.77 1007.89 1008.02 1008.15 1008.29 1008.46 1008.65 1008.88 1009.14 1009.44 1009.77 1010.11 1010.48 1010.85 1011.21 1011.56 1011.89 1012.20 1012.50 1012.79 1013.07 1013.35 1013.65 1013.98 1014.33 1014.71 1015.11 1015.54 1015.99 1016.44 1016.89 1017.34 1017.77 1018.17 1018.55 1018.89
1008.17 1007.89 1007.71 1007.60 1007.55 1007.57 1007.61 1007.67 1007.75 1007.83 1007.92 1008.01 1008.11 1008.23 1008.37 1008.55 1008.77 1009.02 1009.31 1009.63 1009.98 1010.34 1010.71 1011.07 1011.43 1011.77 1012.11 1012.43 1012.75 1013.07 1013.39 1013.73 1014.09 1014.46 1014.86 1015.27 1015.70 1016.13 1016.56 1016.98 1017.39 1017.79 1018.15 1018.50
1008.38 1008.10 1007.90 1007.77 1007.70 1007.67 1007.68 1007.71 1007.75 1007.80 1007.84 1007.89 1007.94 1008.01 1008.10 1008.23 1008.40 1008.61 1008.86 1009.16 1009.49 1009.85 1010.22 1010.61 1011.00 1011.38 1011.76 1012.13 1012.49 1012.84 1013.20 1013.56 1013.92 1014.29 1014.68 1015.07 1015.47 1015.87 1016.27 1016.66 1017.04 1017.41 1017.76 1018.09
Thickness
5682 5687 5686 5684 5683 5679 5672 5666 5659 5663 5664 5669 5671 5670 5670 5670 5669 5668 5667 5667 5665 5664 5663 5662 5662 5661 5661 5660 5658 5657 5655 5652 5650 5648 5646 5644 5641 5638 5636 5633 5630 5627 5624 5622
5680 5686 5685 5681 5681 5679 5675 5671 5667 5666 5665 5672 5672 5670 5668 5667 5666 5665 5664 5664 5664 5663 5661 5661 5660 5659 5658 5657 5656 5654 5652 5650 5648 5646 5644 5641 5639 5636 5633 5630 5627 5624 5622 5620
5666 5676 5680 5669 5675 5675 5672 5671 5668 5663 5666 5669 5667 5666 5665 5665 5665 5664 5664 5663 5662 5661 5660 5659 5658 5656 5655 5654 5653 5651 5649 5648 5646 5644 5642 5640 5638 5634 5631 5627 5625 5622 5619 5616
5658 5666 5660 5668 5682 5680 5673 5671 5669 5668 5668 5667 5666 5665 5665 5665 5663 5663 5662 5661 5661 5660 5659 5658 5656 5655 5653 5653 5651 5649 5646 5645 5644 5642 5640 5637 5634 5631 5628 5625 5622 5619 5616 5613
5649 5652 5658 5671 5678 5675 5669 5665 5670 5667 5667 5666 5665 5663 5662 5666 5664 5663 5662 5661 5660 5659 5658 5656 5655 5653 5651 5649 5648 5646 5644 5643 5642 5640 5637 5635 5632 5629 5626 5623 5620 5617 5614 5611
5647 5648 5647 5664 5678 5680 5672 5658 5668 5667 5665 5662 5660 5651 5655 5664 5663 5662 5661 5660 5658 5657 5656 5654 5653 5651 5648 5646 5645 5643 5642 5641 5640 5638 5635 5632 5630 5626 5623 5621 5617 5614 5611 5608
5644 5644 5652 5669 5676 5676 5655 5656 5668 5667 5664 5660 5655 5655 5659 5661 5661 5661 5660 5659 5657 5655 5653 5652 5651 5648 5645 5644 5642 5642 5641 5639 5637 5635 5632 5630 5627 5625 5622 5619 5615 5612 5609 5605
5639 5639 5647 5671 5670 5662 5660 5667 5667 5666 5664 5660 5658 5659 5658 5658 5658 5658 5657 5656 5654 5652 5650 5650 5648 5646 5643 5641 5641 5640 5639 5637 5635 5633 5631 5629 5625 5623 5620 5617 5613 5609 5606 5602
5645 5649 5660 5664 5665 5667 5666 5664 5664 5664 5664 5662 5658 5657 5657 5656 5655 5655 5654 5653 5652 5649 5648 5647 5645 5643 5641 5641 5640 5639 5637 5635 5633 5631 5628 5626 5623 5620 5617 5614 5611 5608 5604 5600
5646 5653 5659 5662 5663 5665 5664 5664 5664 5663 5662 5661 5658 5656 5654 5653 5652 5652 5651 5650 5649 5646 5645 5644 5643 5641 5640 5640 5639 5637 5634 5633 5630 5628 5625 5623 5620 5618 5616 5613 5610 5607 5603 5599
5641 5649 5654 5659 5660 5661 5661 5662 5662 5661 5660 5658 5656 5654 5652 5650 5650 5649 5648 5647 5646 5643 5642 5642 5641 5640 5639 5638 5637 5634 5632 5630 5628 5626 5623 5620 5618 5616 5615 5613 5610 5607 5603 5598
5638 5646 5645 5649 5656 5658 5656 5656 5657 5656 5654 5655 5653 5651 5650 5648 5647 5646 5645 5644 5643 5641 5640 5640 5639 5638 5638 5637 5635 5632 5630 5628 5625 5623 5621 5618 5616 5615 5614 5612 5609 5606 5601 5597
5644 5647 5646 5649 5651 5652 5651 5652 5652 5652 5651 5649 5650 5649 5647 5645 5645 5643 5643 5642 5640 5640 5639 5638 5637 5636 5636 5635 5633 5631 5628 5626 5623 5621 5619 5617 5615 5613 5611 5610 5608 5604 5600 5596
5641 5641 5640 5642 5643 5645 5646 5647 5647 5647 5647 5646 5645 5645 5643 5642 5641 5641 5640 5640 5639 5638 5637 5636 5635 5634 5635 5633 5631 5629 5627 5625 5622 5620 5617 5615 5613 5612 5610 5607 5605 5602 5600 5596
5633 5635 5634 5636 5637 5638 5639 5639 5638 5638 5639 5640 5640 5640 5639 5638 5638 5638 5639 5639 5637 5636 5635 5633 5632 5633 5633 5631 5629 5627 5625 5623 5621 5618 5616 5614 5612 5610 5608 5605 5602 5600 5598 5596
5624 5626 5627 5628 5628 5629 5630 5630 5630 5630 5632 5634 5634 5635 5635 5636 5636 5636 5636 5636 5633 5632 5632 5631 5631 5632 5631 5629 5627 5626 5624 5622 5620 5617 5615 5612 5610 5608 5606 5604 5601 5599 5597 5594
5614 5615 5617 5618 5620 5621 5623 5624 5624 5625 5626 5627 5629 5630 5631 5631 5631 5632 5633 5632 5631 5630 5630 5630 5630 5630 5629 5627 5625 5624 5622 5620 5618 5616 5614 5612 5609 5607 5605 5602 5600 5598 5595 5593
5609 5610 5611 5613 5614 5614 5617 5618 5619 5619 5620 5623 5624 5625 5625 5625 5625 5627 5628 5628 5628 5628 5629 5629 5629 5628 5627 5626 5624 5622 5620 5618 5616 5614 5612 5610 5608 5606 5603 5601 5598 5596 5593 5591
5601 5603 5605 5607 5609 5609 5609 5611 5613 5614 5616 5618 5619 5619 5620 5621 5622 5623 5624 5623 5623 5623 5626 5627 5626 5626 5625 5624 5622 5620 5618 5616 5614 5612 5610 5608 5606 5604 5601 5599 5596 5594 5591 5588
5593 5595 5597 5600 5602 5603 5604 5605 5607 5608 5610 5612 5613 5614 5615 5616 5618 5619 5619 5619 5620 5622 5624 5624 5624 5623 5623 5621 5619 5617 5616 5614 5613 5610 5608 5606 5604 5602 5600 5597 5595 5592 5590 5587
5584 5587 5589 5591 5593 5595 5597 5598 5600 5602 5604 5606 5607 5608 5610 5612 5613 5614 5614 5615 5619 5620 5620 5620 5620 5621 5620 5619 5617 5616 5614 5612 5611 5609 5607 5605 5603 5601 5598 5596 5593 5591 5589 5586
5576 5579 5581 5583 5585 5587 5589 5591 5593 5596 5598 5600 5603 5604 5605 5607 5609 5610 5611 5613 5616 5617 5616 5617 5617 5618 5617 5616 5615 5613 5612 5610 5609 5607 5606 5604 5602 5599 5597 5595 5593 5591 5588 5586
5568 5571 5573 5575 5577 5579 5582 5584 5587 5590 5593 5595 5598 5599 5600 5602 5604 5605 5607 5612 5613 5613 5614 5614 5614 5614 5613 5613 5612 5611 5610 5609 5608 5606 5605 5602 5601 5599 5597 5594 5592 5590 5587 5585
5561 5563 5566 5568 5570 5572 5574 5577 5580 5584 5587 5590 5593 5595 5597 5598 5601 5604 5606 5608 5609 5610 5611 5611 5611 5610 5610 5610 5610 5609 5608 5608 5606 5605 5603 5602 5600 5598 5596 5593 5591 5589 5586 5584
5554 5556 5558 5560 5562 5565 5568 5570 5573 5577 5581 5585 5588 5592 5594 5596 5597 5601 5603 5604 5605 5606 5607 5608 5607 5607 5607 5607 5607 5607 5606 5606 5605 5603 5601 5600 5598 5596 5594 5591 5589 5586 5584 5582
5547 5549 5552 5554 5557 5559 5561 5564 5567 5571 5575 5579 5583 5587 5590 5593 5595 5597 5598 5600 5602 5602 5603 5604 5604 5604 5605 5604 5604 5604 5604 5603 5602 5601 5600 5598 5596 5594 5591 5589 5587 5585 5583 5580
5541 5543 5545 5549 5552 5555 5557 5560 5563 5566 5570 5573 5577 5582 5585 5588 5590 5592 5594 5595 5597 5598 5599 5600 5600 5601 5601 5602 5602 5602 5601 5601 5600 5598 5597 5595 5593 5592 5590 5587 5585 5583 5581 5579